EW5029 Weather Reports


Display with metric or nautical units.
time (UTC)temp
F
wind
direction
speed
MPH
gust
MPH
rain 1hr
in
rain 24hr
in
rain mn
in
humidity
%
barometer
mb
20260504050510 54 119 0.0 3.0 0.00 0.05 0.01 96 1012.3
20260504050008 54 127 0.0 2.0 0.00 0.05 0.01 96 1012.2
20260504045507 54 127 0.0 3.0 0.00 0.06 0.01 96 1012.3
20260504045006 54 123 1.0 3.0 0.00 0.06 0.01 96 1012.3
20260504044506 55 124 1.0 3.0 0.00 0.06 0.01 96 1012.2
20260504044005 55 126 1.0 3.0 0.00 0.06 0.01 96 1012.2
20260504043505 55 134 1.0 4.0 0.00 0.06 0.01 96 1012.2
20260504043007 55 120 0.0 4.0 0.00 0.06 0.01 96 1012.2
20260504042507 55 126 1.0 4.0 0.00 0.06 0.01 96 1012.2
20260504042004 55 121 0.0 3.0 0.00 0.06 0.01 96 1012.2
20260504041503 55 134 0.0 3.0 0.00 0.06 0.01 96 1012.2
20260504041003 55 125 1.0 3.0 0.00 0.06 0.01 96 1012.2
20260504040504 55 211 0.0 2.0 0.00 0.06 0.01 96 1012.2
20260504040003 55 248 0.0 0.0 0.00 0.06 0.01 96 1012.1
20260504035503 55 248 0.0 0.0 0.00 0.06 0.01 96 1012.2
20260504035005 55 248 0.0 0.0 0.00 0.06 0.01 96 1012.1
20260504034501 55 248 0.0 0.0 0.00 0.06 0.01 96 1012.1
20260504034002 55 248 0.0 0.0 0.00 0.06 0.01 96 1012.1
20260504033501 55 248 0.0 0.0 0.00 0.06 0.01 96 1012.1
20260504033003 55 248 0.0 0.0 0.00 0.06 0.01 95 1012.1
20260504032601 55 248 0.0 0.0 0.00 0.06 0.01 95 1012.1
20260504032058 55 248 0.0 0.0 0.00 0.06 0.01 96 1012.2
20260504031604 55 248 0.0 0.0 0.00 0.06 0.01 96 1012.1
20260504031100 55 248 0.0 0.0 0.00 0.06 0.01 96 1012.1
20260504030558 55 248 0.0 0.0 0.00 0.06 0.01 96 1012.1
20260504030059 55 248 0.0 0.0 0.00 0.06 0.01 96 1012.3
20260504025559 55 248 0.0 0.0 0.00 0.07 0.01 96 1012.2
20260504025058 55 248 0.0 0.0 0.00 0.07 0.01 96 1012.3
20260504024601 55 248 0.0 0.0 0.00 0.07 0.01 96 1012.2
20260504024056 55 248 0.0 0.0 0.00 0.07 0.01 96 1012.2
20260504023556 55 248 0.0 0.0 0.00 0.07 0.01 95 1012.1
20260504023058 55 248 0.0 0.0 0.00 0.07 0.01 95 1012.1
20260504022555 55 248 0.0 0.0 0.00 0.07 0.01 95 1012.1
20260504022054 56 248 0.0 0.0 0.00 0.07 0.01 95 1012.0
20260504021556 56 248 0.0 0.0 0.00 0.07 0.01 95 1012.0
20260504021054 56 248 0.0 0.0 0.00 0.07 0.01 95 1012.1
20260504020554 56 248 0.0 0.0 0.00 0.07 0.01 95 1012.0
20260504020054 56 248 0.0 0.0 0.00 0.07 0.01 95 1012.1
20260504015553 56 248 0.0 0.0 0.00 0.09 0.01 95 1012.0
20260504015054 56 248 0.0 0.0 0.00 0.09 0.01 95 1012.0
20260504014552 56 248 0.0 0.0 0.00 0.09 0.01 95 1012.1
20260504014055 56 248 0.0 0.0 0.00 0.09 0.01 95 1012.0
20260504013553 56 248 0.0 0.0 0.00 0.09 0.01 95 1012.1
20260504013105 56 248 0.0 2.0 0.00 0.09 0.01 95 1012.1
20260504012556 56 290 0.0 2.0 0.00 0.09 0.01 95 1012.2
20260504012055 56 209 0.0 2.0 0.00 0.09 0.01 95 1012.1
20260504011552 56 209 0.0 2.0 0.00 0.09 0.01 95 1012.2
20260504011052 56 244 0.0 2.0 0.00 0.09 0.01 95 1012.2
20260504010551 56 271 0.0 1.0 0.00 0.09 0.01 95 1012.1
20260504010055 56 285 0.0 2.0 0.00 0.09 0.01 95 1012.1
20260504005551 56 285 0.0 2.0 0.00 0.12 0.01 95 1012.1
20260504005051 56 244 0.0 3.0 0.01 0.12 0.01 95 1012.0
20260504004602 56 244 0.0 3.0 0.01 0.12 0.01 95 1012.1
20260504004150 56 294 0.0 4.0 0.01 0.12 0.01 95 1012.0
20260504003552 56 339 0.0 4.0 0.01 0.12 0.01 95 1012.0
20260504003050 56 244 0.0 2.0 0.01 0.12 0.01 95 1012.0
20260504002551 56 218 0.0 2.0 0.01 0.12 0.01 95 1012.2
20260504002052 56 204 0.0 2.0 0.01 0.12 0.01 95 1012.2
20260504001551 56 204 0.0 2.0 0.01 0.12 0.01 95 1012.2
20260504001053 56 134 0.0 2.0 0.01 0.12 0.01 95 1012.2
20260504000550 56 188 0.0 2.0 0.01 0.12 0.01 95 1012.1
20260504000050 56 219 0.0 2.0 0.01 0.12 0.01 94 1012.1
20260503235549 56 219 0.0 1.0 0.00 0.15 0.00 94 1012.1
20260503235051 56 232 0.0 1.0 0.00 0.15 0.00 94 1012.2
20260503234548 56 232 0.0 1.0 0.00 0.15 0.00 94 1012.2
20260503234050 56 232 0.0 1.0 0.00 0.15 0.00 94 1012.2
20260503233547 56 232 0.0 1.0 0.00 0.15 0.00 93 1012.2
20260503233047 56 232 0.0 0.0 0.00 0.15 0.00 93 1012.2
20260503232545 57 232 0.0 1.0 0.00 0.15 0.00 94 1012.1
20260503232044 57 232 0.0 1.0 0.00 0.15 0.00 94 1012.2
20260503231552 57 232 0.0 1.0 0.00 0.15 0.00 94 1012.2
20260503231045 57 232 0.0 1.0 0.00 0.15 0.00 93 1012.1
20260503230544 57 232 0.0 2.0 0.00 0.15 0.00 93 1012.2
20260503230044 57 232 0.0 3.0 0.00 0.15 0.00 93 1012.2
20260503225543 57 300 0.0 3.0 0.00 0.20 0.00 93 1012.1
20260503225044 57 313 0.0 0.0 0.00 0.20 0.00 93 1012.1
20260503224542 57 318 0.0 0.0 0.00 0.20 0.00 92 1012.1
20260503224041 57 318 0.0 1.0 0.00 0.20 0.00 92 1012.1
20260503223540 57 318 0.0 1.0 0.00 0.20 0.00 92 1012.0
20260503223040 57 318 0.0 1.0 0.00 0.20 0.00 92 1012.0
20260503222538 57 318 0.0 1.0 0.00 0.20 0.00 92 1012.0
20260503222040 57 318 0.0 1.0 0.00 0.20 0.00 92 1012.0
20260503221537 58 318 0.0 1.0 0.00 0.20 0.00 92 1011.9
20260503221039 58 318 0.0 1.0 0.00 0.20 0.00 92 1011.9
20260503220536 58 318 0.0 2.0 0.00 0.20 0.00 92 1011.8
20260503220039 58 318 0.0 2.0 0.00 0.20 0.00 92 1011.8
20260503215535 58 318 0.0 2.0 0.00 0.26 0.20 92 1011.9
20260503215035 58 318 0.0 2.0 0.00 0.26 0.20 91 1011.8
20260503214536 58 318 0.0 2.0 0.00 0.26 0.20 91 1011.9
20260503214035 58 318 0.0 2.0 0.00 0.26 0.20 92 1011.8
20260503213534 58 318 0.0 3.0 0.00 0.26 0.20 92 1011.7
20260503213036 58 319 1.0 4.0 0.00 0.26 0.20 92 1011.8
20260503212536 58 288 1.0 4.0 0.00 0.26 0.20 92 1011.8
20260503212034 58 306 0.0 4.0 0.00 0.26 0.20 92 1011.8
20260503211538 58 314 0.0 0.0 0.00 0.26 0.20 92 1011.8
20260503211033 58 314 0.0 0.0 0.00 0.26 0.20 92 1011.8
20260503210533 58 314 0.0 0.0 0.00 0.26 0.20 91 1011.8
20260503210033 58 314 0.0 0.0 0.00 0.26 0.20 91 1011.9
20260503205536 58 314 0.0 0.0 0.00 0.26 0.20 91 1011.8
20260503205034 59 314 0.0 0.0 0.00 0.26 0.20 91 1011.7
20260503204533 59 314 0.0 0.0 0.00 0.26 0.20 91 1011.7
20260503204033 59 314 0.0 0.0 0.00 0.26 0.20 91 1011.6
20260503203536 59 314 0.0 0.0 0.00 0.26 0.20 91 1011.6
20260503203033 59 314 0.0 0.0 0.00 0.26 0.20 90 1011.5
20260503202532 59 314 0.0 0.0 0.00 0.26 0.20 90 1011.5
20260503202037 59 314 0.0 0.0 0.00 0.26 0.20 90 1011.5
20260503201532 59 314 0.0 1.0 0.00 0.26 0.20 90 1011.4
20260503201031 59 314 0.0 1.0 0.00 0.26 0.20 92 1011.6
20260503200531 59 314 0.0 1.0 0.00 0.26 0.20 90 1011.4
20260503200032 59 314 0.0 0.0 0.00 0.26 0.20 90 1011.4
20260503195533 59 314 0.0 0.0 0.00 0.26 0.20 90 1011.4
20260503195031 59 314 0.0 0.0 0.00 0.26 0.20 89 1011.3
20260503194540 59 314 0.0 0.0 0.00 0.26 0.20 89 1011.2
20260503194033 60 314 0.0 0.0 0.00 0.26 0.20 89 1011.2
20260503193531 60 314 0.0 0.0 0.00 0.26 0.20 89 1011.1
20260503193039 60 314 0.0 1.0 0.00 0.26 0.20 89 1011.1
20260503192530 60 314 0.0 2.0 0.00 0.26 0.20 89 1011.0
20260503192030 60 314 0.0 2.0 0.00 0.26 0.20 89 1011.0
20260503191530 60 314 0.0 2.0 0.00 0.26 0.20 89 1011.1
20260503191032 60 314 0.0 2.0 0.00 0.26 0.20 89 1010.9
20260503190530 60 314 0.0 2.0 0.00 0.26 0.20 89 1010.9
20260503190039 60 314 0.0 2.0 0.01 0.26 0.20 89 1010.9
20260503185529 60 284 0.0 1.0 0.01 0.26 0.20 88 1010.8
20260503185031 60 284 0.0 1.0 0.01 0.26 0.20 88 1010.7
20260503184529 60 284 0.0 1.0 0.01 0.26 0.20 88 1010.6
20260503184030 60 284 0.0 0.0 0.01 0.26 0.20 88 1010.6
20260503183528 60 284 0.0 0.0 0.01 0.26 0.20 88 1010.6
20260503183028 60 284 0.0 0.0 0.01 0.26 0.20 88 1010.6
20260503182538 60 284 0.0 0.0 0.01 0.26 0.20 87 1010.6
20260503182031 60 284 0.0 1.0 0.01 0.26 0.20 87 1010.6
20260503181527 60 284 0.0 1.0 0.01 0.26 0.20 87 1010.6
20260503181028 61 284 0.0 1.0 0.01 0.26 0.20 87 1010.5
20260503180528 61 284 0.0 1.0 0.01 0.26 0.20 86 1010.4
20260503180027 61 284 0.0 2.0 0.00 0.25 0.20 86 1010.4
20260503175527 61 325 0.0 2.0 0.00 0.25 0.20 86 1010.3
20260503175029 61 325 0.0 2.0 0.00 0.25 0.20 86 1010.2
20260503174528 61 325 1.0 2.0 0.00 0.25 0.20 86 1010.2
20260503174029 61 321 0.0 5.0 0.00 0.25 0.20 86 1010.2
20260503173527 61 341 1.0 5.0 0.00 0.25 0.20 86 1010.2
20260503173027 61 320 0.0 4.0 0.00 0.25 0.20 86 1010.3
20260503172525 61 215 1.0 5.0 0.00 0.25 0.20 86 1010.3
20260503172028 61 332 2.0 4.0 0.00 0.25 0.20 86 1010.2
20260503171525 61 316 1.0 4.0 0.00 0.25 0.20 86 1010.3
20260503171027 61 259 0.0 8.0 0.00 0.25 0.20 86 1010.4
20260503170526 61 327 2.0 8.0 0.00 0.25 0.20 86 1010.3
20260503150515 61 157 0.0 4.0 0.01 0.25 0.20 90 1010.2
20260503131008 60 339 0.0 5.0 0.00 0.24 0.19 94 1010.9
20260503130508 59 317 1.0 6.0 0.01 0.24 0.19 94 1010.9
20260503110501 59 318 3.0 8.0 0.00 0.24 0.18 95 1011.1
20260503100121 61 171 0.0 4.0 0.00 0.24 0.18 93 1011.0
20260503081552 60 241 1.0 3.0 0.00 0.23 0.17 97 1010.8
20260503081049 60 132 0.0 4.0 0.00 0.23 0.17 97 1010.8
20260503080551 60 165 1.0 4.0 0.00 0.23 0.17 97 1010.8